Flag for U.S.A. Weather past 2 weeks in Jackson, Mississippi, U.S.A.

Now
79 °F

Passing clouds.


Feels Like: 82 °F
Forecast: 71 / 93 °F
Wind: 9 mph from Southeast

Location: Hawkins Field

Current Time: Aug 31, 2015 at 12:52:18 AM

Latest Report: Aug 30, 2015 at 11:53 PM


Visibility: 10 mi

Pressure: 30.00 "Hg

Humidity: 74%

Dew point: 70 °F

Location of JacksonLocation

Historic Weather in Jackson — Graph

°F

Jackson temperature yesterday

Maximum temperature yesterday: 94 °F (at 3:53 PM)
Minimum temperature yesterday: 70 °F (at 3:53 AM)
Average temperature yesterday: 82 °F

Past Weeks' High & Low Weather Summary

 TemperatureHumidityPressure
High94 °F (Aug 23, 2:53 PM)97% (Aug 21, 3:00 AM)30.11 "Hg (Aug 21, 3:00 AM)
Low59 °F (Aug 27, 5:53 AM)24% (Aug 26, 3:53 PM)29.86 "Hg (Aug 18, 7:53 PM)
Average80 °F64%29.99 "Hg
* Reported Aug 15 11:53 PM — Aug 30 11:53 PM, Jackson, Weather by CustomWeather, © 2015

Note: Actual official high and low records may vary slightly from our data, if they occured in-between our weather recording intervals... More about our weather records

Advertising

Jackson weather history for previous 24 hours

 ConditionsComfort  
Time TempWeatherWind HumidityBarometerVisibility
11:53 PM
Sun, Aug 30
79 °FPassing clouds.9 mph74%30.00 "Hg10 mi
10:53 PM81 °FPassing clouds.7 mph67%30.00 "Hg10 mi
9:53 PM83 °FPassing clouds.7 mph59%29.99 "Hg10 mi
8:53 PM83 °FClear.3 mph53%29.97 "Hg10 mi
7:53 PM86 °FScattered clouds.6 mph46%29.94 "Hg10 mi
6:53 PM89 °FOvercast.7 mph43%29.94 "Hg10 mi
5:53 PM90 °FSunny.6 mph37%29.94 "Hg10 mi
4:53 PM91 °FSunny.3 mph32%29.94 "Hg10 mi
3:53 PM94 °FPassing clouds.3 mph32%29.95 "Hg10 mi
2:53 PM93 °FSunny.7 mph33%29.98 "Hg10 mi
1:53 PM93 °FSunny.5 mph34%30.00 "Hg10 mi
12:53 PM91 °FOvercast.6 mph38%30.02 "Hg10 mi
11:53 AM90 °FSunny.5 mph41%30.04 "Hg10 mi
10:53 AM88 °FSunny.3 mph45%30.05 "Hg10 mi
9:53 AM84 °FSunny.No wind57%30.04 "Hg10 mi
8:53 AM79 °FSunny.3 mph67%30.03 "Hg10 mi
7:53 AM73 °FSunny.No wind79%30.03 "Hg8 mi
6:53 AM70 °FClear.No wind84%30.01 "Hg8 mi
5:53 AM70 °FClear.3 mph81%30.01 "Hg10 mi
4:53 AM70 °FClear.3 mph81%29.99 "Hg10 mi
3:53 AM70 °FClear.5 mph81%29.98 "Hg10 mi
2:53 AM73 °FClear.No wind76%29.98 "Hg10 mi
1:53 AM73 °FClear.3 mph76%30.00 "Hg10 mi
12:53 AM74 °FClear.3 mph74%30.01 "Hg10 mi
Weather by CustomWeather, © 2015

See weather overviewHow to use our weather pages